When you browse on this site, cookies collect data to enhance your experience and personalize the content and advertising you see.
Visit our Privacy Policy to learn more. By continuing to use the site, you agree to this use of cookies and data.
  • En España
  • Lista de países
  • Para 7 días
  • Temperatura del agua
  • El tiempo en el mapa
  • Informadores
  • user-avatar
    Iniciar sesión

    Tiempo cada hora Vitoria

    Hoy, 18 Octubre, Viernes

    Tiempo Temperatura Precipitaciones Viento Presión Humedad
    00:00 +15°C° 0 mm 1 mps 715 mmHg 80%
    01:00 +15°C° 0 mm 1 mps 715 mmHg 81%
    02:00 +14°C° 0 mm 1 mps 714 mmHg 83%
    03:00 +14°C° 0 mm 1 mps 714 mmHg 84%
    04:00 +14°C° 0.1 mm 1 mps 715 mmHg 87%
    05:00 +14°C° 0.1 mm 1 mps 715 mmHg 89%
    06:00 +14°C° 0 mm 1 mps 715 mmHg 92%
    07:00 +14°C° 0.1 mm 1 mps 715 mmHg 89%
    08:00 +15°C° 0.1 mm 1 mps 715 mmHg 87%
    09:00 +15°C° 0.1 mm 1 mps 715 mmHg 85%
    10:00 +16°C° 0 mm 1 mps 715 mmHg 77%
    11:00 +18°C° 0 mm 1 mps 715 mmHg 69%
    12:00 +18°C° 0 mm 2 mps 715 mmHg 61%
    13:00 +19°C° 0 mm 2 mps 715 mmHg 59%
    14:00 +19°C° 0 mm 2 mps 714 mmHg 57%
    15:00 +19°C° 0 mm 2 mps 714 mmHg 54%
    16:00 +18°C° 0 mm 2 mps 713 mmHg 59%
    17:00 +16°C° 0 mm 1 mps 713 mmHg 64%
    18:00 +15°C° 0 mm 1 mps 712 mmHg 69%
    19:00 +14°C° 0 mm 1 mps 712 mmHg 67%
    20:00 +14°C° 0 mm 1 mps 712 mmHg 64%
    21:00 +14°C° 0 mm 1 mps 712 mmHg 62%
    22:00 +14°C° 0 mm 2 mps 712 mmHg 64%
    23:00 +13°C° 0 mm 2 mps 712 mmHg 67%

    Mañana, 19 Octubre, Sábado

    Tiempo Temperatura Precipitaciones Viento Presión Humedad
    00:00 +13°C° 0 mm 2 mps 711 mmHg 69%
    01:00 +13°C° 0 mm 2 mps 711 mmHg 71%
    02:00 +13°C° 0 mm 2 mps 711 mmHg 72%
    03:00 +12°C° 0 mm 2 mps 711 mmHg 74%
    04:00 +13°C° 0 mm 2 mps 710 mmHg 73%
    05:00 +13°C° 0 mm 2 mps 710 mmHg 73%
    06:00 +13°C° 0 mm 2 mps 710 mmHg 73%
    07:00 +14°C° 0 mm 2 mps 710 mmHg 68%
    08:00 +15°C° 0 mm 2 mps 710 mmHg 63%
    09:00 +16°C° 0 mm 3 mps 710 mmHg 58%
    10:00 +17°C° 0 mm 3 mps 710 mmHg 52%
    11:00 +19°C° 0 mm 3 mps 710 mmHg 46%
    12:00 +20°C° 0 mm 3 mps 709 mmHg 40%
    13:00 +20°C° 0 mm 3 mps 709 mmHg 40%
    14:00 +21°C° 0 mm 3 mps 708 mmHg 39%
    15:00 +21°C° 0 mm 2 mps 708 mmHg 38%
    16:00 +19°C° 0.1 mm 2 mps 707 mmHg 49%
    17:00 +17°C° 0.1 mm 2 mps 707 mmHg 60%
    18:00 +15°C° 0.1 mm 2 mps 707 mmHg 71%
    19:00 +14°C° 0.5 mm 1 mps 706 mmHg 76%
    20:00 +14°C° 0.5 mm 1 mps 706 mmHg 81%
    21:00 +13°C° 0.5 mm 1 mps 706 mmHg 86%
    22:00 +13°C° 1.2 mm 1 mps 705 mmHg 89%
    23:00 +13°C° 1.2 mm 1 mps 705 mmHg 91%

    Pasado mañana, 20 Octubre, Domingo

    Tiempo Temperatura Precipitaciones Viento Presión Humedad
    00:00 +12°C° 1.2 mm 1 mps 704 mmHg 94%
    01:00 +12°C° 0.8 mm 2 mps 704 mmHg 90%
    02:00 +12°C° 0.8 mm 2 mps 704 mmHg 86%
    03:00 +11°C° 0.8 mm 3 mps 704 mmHg 82%
    04:00 +10°C° 0.1 mm 3 mps 704 mmHg 82%
    05:00 +10°C° 0.1 mm 4 mps 705 mmHg 82%
    06:00 +8°C° 0.1 mm 4 mps 705 mmHg 81%
    07:00 +8°C° 1.2 mm 4 mps 706 mmHg 82%
    08:00 +8°C° 1.2 mm 4 mps 706 mmHg 84%
    09:00 +8°C° 1.2 mm 4 mps 707 mmHg 85%
    10:00 +9°C° 1.2 mm 3 mps 708 mmHg 85%
    11:00 +9°C° 1.2 mm 3 mps 709 mmHg 84%
    12:00 +9°C° 1.2 mm 3 mps 710 mmHg 83%
    13:00 +10°C° 0.2 mm 3 mps 710 mmHg 81%
    14:00 +10°C° 0.2 mm 3 mps 711 mmHg 79%
    15:00 +11°C° 0.2 mm 3 mps 712 mmHg 77%
    16:00 +10°C° 0.2 mm 2 mps 712 mmHg 78%
    17:00 +11°C° 0.2 mm 1 mps 713 mmHg 80%
    18:00 +9°C° 0.2 mm 0 mps 713 mmHg 82%
    19:00 +9°C° 0 mm 0 mps 714 mmHg 82%
    20:00 +9°C° 0 mm 0 mps 714 mmHg 83%
    21:00 +8°C° 0 mm 0 mps 714 mmHg 83%
    22:00 +8°C° 0 mm 0 mps 715 mmHg 83%
    23:00 +8°C° 0 mm 0 mps 715 mmHg 83%

    21 Octubre, Lunes

    Tiempo Temperatura Precipitaciones Viento Presión Humedad
    00:00 +8°C° 0 mm 0 mps 715 mmHg 83%
    01:00 +8°C° 0 mm 0 mps 715 mmHg 84%
    02:00 +7°C° 0 mm 0 mps 715 mmHg 85%
    03:00 +7°C° 0 mm 0 mps 715 mmHg 86%
    04:00 +7°C° 0 mm 0 mps 715 mmHg 87%
    05:00 +7°C° 0 mm 0 mps 716 mmHg 88%
    06:00 +6°C° 0 mm 0 mps 716 mmHg 88%
    07:00 +8°C° 0 mm 0 mps 716 mmHg 84%
    08:00 +9°C° 0 mm 0 mps 716 mmHg 79%
    09:00 +12°C° 0 mm 1 mps 717 mmHg 74%
    10:00 +13°C° 0.1 mm 1 mps 717 mmHg 67%
    11:00 +14°C° 0.1 mm 1 mps 717 mmHg 61%
    12:00 +15°C° 0.1 mm 2 mps 717 mmHg 54%
    13:00 +15°C° 0.2 mm 2 mps 717 mmHg 55%
    14:00 +14°C° 0.2 mm 3 mps 717 mmHg 55%
    15:00 +14°C° 0.2 mm 3 mps 716 mmHg 56%
    16:00 +12°C° 0.3 mm 3 mps 717 mmHg 67%
    17:00 +10°C° 0.3 mm 2 mps 717 mmHg 77%
    18:00 +10°C° 0.3 mm 1 mps 717 mmHg 88%
    19:00 +9°C° 0 mm 1 mps 717 mmHg 90%
    20:00 +9°C° 0 mm 1 mps 717 mmHg 92%
    21:00 +8°C° 0 mm 1 mps 717 mmHg 94%
    22:00 +8°C° 0 mm 1 mps 717 mmHg 94%
    23:00 +8°C° 0 mm 1 mps 718 mmHg 94%

    22 Octubre, Martes

    Tiempo Temperatura Precipitaciones Viento Presión Humedad
    00:00 +9°C° 0 mm 1 mps 718 mmHg 94%
    01:00 +9°C° 0 mm 1 mps 717 mmHg 94%
    02:00 +8°C° 0 mm 1 mps 717 mmHg 94%
    03:00 +8°C° 0 mm 1 mps 717 mmHg 95%
    04:00 +8°C° 0 mm 1 mps 717 mmHg 95%
    05:00 +8°C° 0 mm 1 mps 717 mmHg 95%
    06:00 +8°C° 0 mm 1 mps 717 mmHg 96%
    07:00 +9°C° 0 mm 1 mps 717 mmHg 92%
    08:00 +9°C° 0 mm 2 mps 717 mmHg 88%
    09:00 +10°C° 0 mm 2 mps 717 mmHg 84%
    10:00 +12°C° 0.1 mm 2 mps 717 mmHg 77%
    11:00 +12°C° 0.1 mm 3 mps 716 mmHg 70%
    12:00 +13°C° 0.1 mm 4 mps 716 mmHg 63%
    13:00 +13°C° 0 mm 4 mps 716 mmHg 65%
    14:00 +12°C° 0 mm 4 mps 715 mmHg 67%
    15:00 +12°C° 0 mm 4 mps 715 mmHg 69%
    16:00 +11°C° 0 mm 3 mps 715 mmHg 75%
    17:00 +10°C° 0 mm 3 mps 715 mmHg 81%
    18:00 +9°C° 0 mm 2 mps 715 mmHg 87%
    19:00 +9°C° 0 mm 2 mps 714 mmHg 89%
    20:00 +9°C° 0 mm 2 mps 714 mmHg 91%
    21:00 +9°C° 0 mm 2 mps 714 mmHg 92%
    22:00 +9°C° 0.1 mm 2 mps 714 mmHg 93%
    23:00 +9°C° 0.1 mm 2 mps 714 mmHg 94%

    23 Octubre, Miércoles

    Tiempo Temperatura Precipitaciones Viento Presión Humedad
    00:00 +9°C° 0.1 mm 2 mps 714 mmHg 95%
    01:00 +9°C° 0.1 mm 2 mps 714 mmHg 95%
    02:00 +9°C° 0.1 mm 3 mps 713 mmHg 94%
    03:00 +9°C° 0.1 mm 3 mps 713 mmHg 94%
    04:00 +9°C° 0.1 mm 3 mps 712 mmHg 94%
    05:00 +9°C° 0.1 mm 3 mps 712 mmHg 93%
    06:00 +9°C° 0.1 mm 3 mps 712 mmHg 93%
    07:00 +10°C° 0.5 mm 4 mps 712 mmHg 93%
    08:00 +10°C° 0.5 mm 4 mps 712 mmHg 94%
    09:00 +9°C° 0.5 mm 5 mps 711 mmHg 94%
    10:00 +10°C° 3.1 mm 5 mps 711 mmHg 94%
    11:00 +10°C° 3.1 mm 5 mps 711 mmHg 94%
    12:00 +10°C° 3.1 mm 5 mps 710 mmHg 94%
    13:00 +10°C° 0.8 mm 6 mps 710 mmHg 94%
    14:00 +10°C° 0.8 mm 7 mps 710 mmHg 94%
    15:00 +10°C° 0.8 mm 7 mps 709 mmHg 93%
    16:00 +10°C° 0.7 mm 7 mps 709 mmHg 94%
    17:00 +10°C° 0.7 mm 6 mps 709 mmHg 94%
    18:00 +10°C° 0.7 mm 6 mps 710 mmHg 94%
    19:00 +10°C° 1.1 mm 6 mps 710 mmHg 94%
    20:00 +10°C° 1.1 mm 6 mps 710 mmHg 94%
    21:00 +9°C° 1.1 mm 6 mps 710 mmHg 94%
    22:00 +9°C° 1.3 mm 6 mps 710 mmHg 94%
    23:00 +9°C° 1.3 mm 5 mps 710 mmHg 94%
    Mostrar más